www.pogodaiklimat.ru
ПОГОДА в Лас-Вегасе
Время
и дата
12:53 29.01
13:53 29.01
14:53 29.01
15:53 29.01
16:53 29.01
17:53 29.01
18:53 29.01
19:53 29.01
20:53 29.01
21:53 29.01
22:53 29.01
23:44 29.01
23:53 29.01
00:04 30.01
00:53 30.01
01:19 30.01
01:28 30.01
01:53 30.01
02:02 30.01
02:13 30.01
02:27 30.01
02:53 30.01
03:53 30.01
04:43 30.01
04:53 30.01
05:01 30.01
05:14 30.01
05:44 30.01
05:53 30.01
06:53 30.01
07:15 30.01
07:53 30.01
08:53 30.01
09:07 30.01
09:24 30.01
09:31 30.01
09:42 30.01
09:53 30.01
10:04 30.01
10:53 30.01
11:53 30.01
12:53 30.01
13:53 30.01
14:53 30.01
15:53 30.01
16:53 30.01
17:53 30.01
18:53 30.01
Ветер
(напр.,м/с)
Видим. Явления Облачность Т
(С)
Тd
(С)
f
(%)
Тe
(С)
Тes
(С)
Комфортность P
(гПа)
Po
(гПа)
Тmin
(С)
Tmax
(С)
R
(мм)
R24
(мм)
S
(см)
ЮЗ 12
{17}
16 км ясно +8.3 -13.9 19 +4 +4 1007.8 783.4
ЮЗ 12
{18}
16 км ясно +8.9 -13.3 19 +5 +5 1006.4 782.9
ЮЗ 13
{20}
16 км ясно +8.9 -13.9 18 +4 +4 1006.9 782.9
ЮЗ 11
{19}
16 км ясно +8.3 -13.9 19 +4 +4 1007.1 783.4
Ю 8
{15}
16 км ясно +6.7 -14.4 20 +3 +3 1008.6 784.0 +6.7 +9.4
Ю 8 16 км ясно -0.6 -8.3 56 -8 -8 1011.4 784.5
Ю 5 16 км ясно -3.3 -8.3 68 -10 -10 1014.1 785.5
Ю 5 16 км ясно -5.0 -8.9 74 -12 -12 1015.0 785.8
Ю 5 16 км ясно -7.2 -10.0 80 -15 -15 1014.3 786.1
Ю 6 16 км ясно -7.2 -9.4 84 -15 -15 1014.0 786.3
Ю 6 16 км ясно -8.3 -10.0 88 -17 -17 1014.3 786.9 -8.3 +6.1
Ю 6 16 км 5/5 210 м -8.9 -10.6 87 -17 -17 786.9
Ю 8 16 км 8/8 150 м -8.3 -10.0 88 -18 -18 1013.8 786.6
Ю 8 16 км 10/10 90 м -7.8 -9.4 88 -17 -17 786.6
Ю 8 10 км дымка 10/10 90 м -7.2 -8.3 92 -17 -17 1013.3 786.6
Ю 8 3 км дымка 10/10 90 м -7.2 -8.3 92 -17 -17 786.6
Ю 8 800 м переохлажденный туман ?/? -7.2 -8.3 92 -17 -17 786.6
Ю 8 1 км дымка ?/? -7.2 -8.3 92 -17 -17 1012.9 786.6
Ю 8 2 км дымка ?/? -7.2 -8.3 92 -17 -17 786.3
Ю 8 800 м переохлажденный туман ?/? -7.2 -8.3 92 -17 -17 786.3
Ю 8 400 м переохлажденный туман ?/? -7.2 -8.3 92 -17 -17 786.6
Ю 7 400 м переохлажденный туман ?/? -7.2 -8.3 92 -16 -16 1013.0 786.6
Ю 9 400 м переохлажденный туман ?/? -7.8 -9.4 88 -18 -18 1013.2 786.3
Ю 8 800 м переохлажденный туман ?/? -8.9 -10.0 92 -19 -19 786.3
Ю 9 800 м переохлажденный туман ?/? -8.9 -10.0 92 -19 -19 1013.6 786.1 -9.4 -7.2
Ю 8 400 м переохлажденный туман ?/? -8.9 -10.0 92 -19 -19 786.1
Ю 6 800 м переохлажденный туман ?/? -8.9 -10.0 92 -17 -17 786.3
Ю 8 400 м переохлажденный туман ?/? -8.9 -10.0 92 -19 -19 786.3
Ю 8 800 м переохлажденный туман ?/? -8.9 -10.0 92 -19 -19 1016.0 786.3
Ю 8 800 м переохлажденный туман ?/? -9.4 -10.6 91 -19 -19 1017.3 786.6
Ю 9 400 м переохлажденный туман ?/? -9.4 -10.6 91 -20 -20 786.6
Ю 9 400 м переохлажденный туман ?/? -8.9 -10.0 92 -19 -19 1017.9 786.9
Ю 9 400 м переохлажденный туман ?/? -7.8 -8.9 92 -18 -18 1018.7 787.1
Ю 8 800 м переохлажденный туман ?/? -7.2 -8.3 92 -17 -17 787.6
Ю 8 3 км дымка 10/10 60 м -6.7 -7.8 92 -16 -16 787.4
Ю 9 4 км дымка 10/10 60 м -6.7 -7.8 92 -16 -16 787.4
Ю 7 10 км дымка 10/10 60 м -6.1 -7.2 92 -15 -15 787.4
Ю 8 13 км 8/8 60 м -5.0 -6.1 92 -14 -14 1018.3 787.4
Ю 8 16 км 5/5 90 м -4.4 -5.6 91 -13 -13 787.1
Ю 10
{13}
16 км ясно -2.2 -6.1 75 -11 -11 1016.7 786.6 -9.4 -2.2
Ю 9
{13}
16 км ясно +4.4 -8.3 39 -1 0 1013.4 785.5
Ю 8
{13}
16 км ясно +5.6 -8.3 36 +1 +2 1011.5 784.8
Ю 9
{14}
16 км ясно +7.2 -10.0 28 +3 +4 1010.8 784.5
ЮЗ 12
{16}
16 км ясно +8.9 -15.6 16 +5 +5 1009.6 784.0
З 11
{15}
16 км ясно +8.3 -15.6 17 +4 +4 1010.7 784.5
З 7
{10}
16 км ясно +6.7 -15.0 19 +3 +3 1012.2 785.0 -2.2 +9.4
Ю 7 16 км ясно -2.8 -8.3 66 -10 -10 1015.6 785.5
Ю 7 16 км ясно -5.0 -8.9 74 -13 -13 1016.9 785.8
Местоположение метеостанции Las Vegas Municipal Airport: широта 35.6542 долгота -105.1425 высота над уровнем моря 2096 м.
В архиве по умолчанию представлена погода в Лас-Вегасе за последние 1-2 суток. Обновление информации о фактической погоде в базе происходит ежечасно! Архивные данные за месяц целиком и за предыдущие месяцы Вы можете получить, выбрав интересующий диапазон дат из раскрывающегося списка и нажав кнопку "Ввод!".
Внимание! Архив погоды МЕТАР в базе сайта по станциям, не включенным в климатический монитор, хранится не более 60 дней. Нет смысла пытаться выбрать более раннюю дату.
*Определитесь, кто Вы:
Внимание! Время в таблицах - местное (без учета летнего времени). Для получения всемирного времени необходимо вычесть поправку, которая равна -7 ч.
Смотрите также архив погоды в соседних городах и на ближайших метеорологических станциях:
Партнеры нашего сайта:      
Пояснения к столбцам:
  • Ветер - указаны скорость ветра в м/с - средняя за 10 мин, порывы в срок и между сроками (в фигурных скобках) и направление, откуда дует ветер: С - северный,
  • СВ - северо-восточный, В - восточный, ЮВ - юго-восточный, Ю - южный, ЮЗ - юго-западный, З - западный, СЗ - северо-западный.
  • Видимость - горизонтальная дальность видимости в метрах или километрах. При видимости от 1 до 10 км при отсутствии осадков обычно наблюдается дымка, при ухудшении видимости до 1 км и менее - туман. В сухую погоду видимость может ухудшаться дымом, пылью или мглою.
  • Явления - указаны атмосферные явления, наблюдавшиеся в срок или в последний час перед сроком; фигурными скобками обозначены явления, наблюдавшиеся между сроками (за 1-3 часа до срока); квадратными скобками обозначены град или гололедные отложения с указанием их диаметра в мм.
  • Облачность - указаны через наклонную черту общая и нижняя облачность в баллах и высота нижней границы облаков в метрах; квадратными скобками обозначены формы облаков: Ci - перистые, Cs - перисто-слоистые, Cc - перисто-кучевые, Ac - высококучевые, As - высокослоистые, Sc - слоисто-кучевые, Ns - слоисто-дождевые, Cu - кучевые, Cb - кучево-дождевые. Подробнее классификацию облаков см. в Атласе облаков (PDF).
  • T - Температура воздуха - температура, измеренная на высоте 2 м над землей.
  • Td - Температура точки росы - температура, при понижении до которой содержащийся в воздухе водяной пар достигнет насыщения.
  • f - Относительная влажность воздуха - влажноcть воздуха, измеренная на высоте 2 м над землей.
  • Te - Эффективная температура - температура, которую ощущает одетый по сезону человек в тени. Характеристика душности погоды. При расчете учитывается влияние влажности воздуха и скорости ветра на теплоощущения человека.
  • Tes - Эффективная температура на солнце - температура, которую ощущает человек, с поправкой на солнечный нагрев. Характеристика знойности погоды. Зависит от высоты солнца над горизонтом, облачности и скорости ветра. Ночью, в пасмурную погоду, а также при ветре 12 м/с и более поправка равна нулю.
  • P - Атмосферное давление - приведенное к уровню моря атмосферное давление.
  • Po - Атмосферное давление - измеренное на уровне метеостанции атмосферное давление.
  • Tmin - Минимальная температура - минимум температуры воздуха на высоте 2 м над землей.
  • Tmax - Максимальная температура - максимум температуры воздуха на высоте 2 м над землей.
  • R - Количество осадков - Количество выпавших осадков за период времени, мм. При наведении курсора мыши на число - период времени, за который выпало указанное количество осадков.
  • R24 - Количество осадков - Количество выпавших осадков за 24 часа, мм.
  • S - Снежный покров - Высота снежного покрова, см. При наведении курсора мыши на число - состояние снежного покрова и степень покрытия местности в баллах.